Tracking 35331 objects as of 17-Sep-2026
HD Live streaming from Space Station
objects crossing your sky now

STARLINK-2427

Track STARLINK-2427 now!
10-day predictions
STARLINK-2427 is classified as:


NORAD ID: 47837
Int'l Code: 2021-018BC
Launch date: March 11, 2021
Source: United States (US)
Launch site: AIR FORCE EASTERN TEST RANGE (AFETR)
Your satellite tracking list
Your tracking list is empty




NASA's NSSDC Master Catalog

Two Line Element Set (TLE):
1 47837U 21018BC  26259.00433606  .00035657  00000-0  11099-2 0  9995
2 47837  53.1587  73.2446 0000383 338.2095  21.8891 15.32984425305932
Source of the keplerian elements: AFSPC